Location: Bh?mavarapp?du
(16.7041°N, 80.6518°E)
Time: 02:06:51
(UTC+00:00)

Hubble Space Telescope - Pass Details

Date: 21 April 2021
Orbit: 535 x 539 km, 28.5° (Epoch: 07 May)

Event Time Altitude Azimuth Distance (km) Brightness Sun altitude
Rises 14:04:20 0° 277° (W) 2,670 5.9 -17.0°
Reaches altitude 10° 14:06:56 10° 291° (WNW) 1,780 4.7 -17.6°
Maximum altitude 14:10:17 24° 346° (NNW) 1,140 2.8 -18.3°
Enters shadow 14:13:16 12° 37° (NE) 1,666 3.1 -19.0°
